Terminal Aerodrome Forecast
Issued by NWS State College, PA

Home | Current Version | Previous Version | Text Only | Print | Product List | Glossary On
Versions: 1 2 3 4 5 6 7 8 9 10 11 12 13 14 15 16 17 18 19 20 21 22 23 24 25 26 27 28 29 30 31 32 33 34 35 36 37 38 39 40 41 42 43 44 45 46 47 48 49 50
189
FTUS41 KCTP 232339
TAFIPT
TAF
KIPT 232339Z 2400/2424 08017G27KT P6SM OVC050 WS020/15040KT
     FM240400 11012KT P6SM -SHRA OVC025 WS020/16050KT
      TEMPO 2405/2408 16030G45KT 3SM +RA OVC015
     FM240800 16012KT 5SM -SHRA OVC005
     FM241200 22010KT P6SM -SHRA OVC015
     FM241400 20009KT P6SM BKN050=

USA.gov is the U.S. government's official web portal to all federal, state and local government web resources and services.